Location: Newark
(59.4564°N, 26.6917°E)
Time: 15:05:06
(UTC+00:00)

S-56A Canister/Altair - Pass Details

Date: 19 November 2019
Orbit: 633 x 2499 km, 38.9° (Epoch: 04 December)

Event Time Altitude Azimuth Distance (km) Brightness Sun altitude
Rises 15:29:31 0° 215° (SW) 4,916 12.5 -13.1°
Reaches altitude 10° 15:35:52 10° 188° (S) 3,407 11.1 -13.9°
Maximum altitude 15:38:23 12° 170° (S) 3,067 10.6 -14.2°
Drops below altitude 10° 15:40:41 10° 151° (SSE) 2,995 10.4 -14.5°
Enters shadow 15:43:49 - 128° (SE) 3,304 10.4 -14.9°
Sets 15:45:12 0° 120° (ESE) 3,570 - -15.0°
